Content
SEND FEEDBACK

Daily
Averages
Monthly
Summary
Spain

ZARAGOZA, SPAIN


Home > Europe > Spain
Elevation: 846 feet     Latitude: 41 40N     Longitude: 001 01W

WEATHER
 
SELECT A DAY
Number of Records: 319,417;   Date Range: 7/1/96 - 10/20/14
 
SHARE

PRINT THIS DATA

[ ← Previous Day ]
WEATHER ALMANAC - SEPTEMBER 25, 2013
[ Next Day → ]
[ °C ]   °F
Weather ElementAverageHighLow
Temperature73.9 °F87.8 °F (5:00 pm)60.8 °F (8:00 am)
Dewpoint58.6 °F62.6 °F (10:30 am)50 °F (6:30 pm)
Humidity63.4 %94 % (6:00 am)22 % (8:00 pm)
Barometer29.93 in29.98 in (2:30 am)29.82 in (8:00 pm)
Wind Speed7.3 mph12.7 mph (1:30 pm)
Weather ElementAverage
Visibility5.6 mi
Wind DirectionE (92.8 °)

Weather ElementTotal
Precipitation---
Cooling Degree Days9.3 (Base 65)
Growing Degree Days24.3 (Base 50)
Averaged from 50 records on September 25, 2013
WEATHER CONDITIONS BREAKOUT
WIND DIRECTION BREAKOUT
WEATHER BY HOUR - SEPTEMBER 25, 2013
[ °C ]   °F
Local TimeTemperatureDewpointHumidityBarometerVisibilityWind DirectionWind SpeedGust SpeedPrecipitationEventsConditions
12:30 AM69.8 °F60.8 °F73 %29.95 inEast (90°)6.9 mphClear
1:00 AM69.8 °F60.8 °F73 %29.95 inEast (90°)6.9 mphClear
1:30 AM69.8 °F60.8 °F73 %29.95 inEast (90°)6.9 mphClear
2:00 AM68.0 °F60.8 °F78 %29.95 inEast (80°)4.6 mphClear
2:30 AM66.2 °F60.8 °F83 %29.98 inEast (80°)6.9 mphClear
3:00 AM66.2 °F60.8 °F83 %29.98 inEast (80°)6.9 mphClear
3:30 AM66.2 °F60.8 °F83 %29.95 inENE (70°)3.5 mphClear
4:00 AM64.4 °F60.8 °F88 %29.95 inEast (90°)4.6 mphClear
4:30 AM64.4 °F60.8 °F88 %29.95 inEast (90°)4.6 mphClear
5:00 AM64.4 °F60.8 °F88 %29.95 inEast (90°)4.6 mphClear
5:30 AM64.4 °F60.8 °F88 %29.95 inEast (80°)2.3 mphClear
6:00 AM62.6 °F60.8 °F94 %29.95 inEast (80°)3.5 mphClear
6:30 AM62.6 °F59.0 °F88 %29.95 in3.7 miEast (90°)4.6 mph
7:00 AM62.6 °F59.0 °F88 %29.95 in3.7 miEast (90°)3.5 mph
7:30 AM62.6 °F59.0 °F88 %29.95 in3.7 miEast (80°)2.3 mph
8:00 AM63.0 °F61.0 °F90 %29.94 in3.0 miENE (70°)2.3 mphMist
8:00 AM60.8 °F59.0 °F94 %29.95 in3.1 miEast (80°)3.5 mphMist
8:30 AM60.8 °F59.0 °F94 %29.98 in3.7 miEast (80°)3.5 mphPartly Cloudy
9:00 AM62.6 °F60.8 °F94 %29.98 in4.3 miEast (90°)3.5 mphScattered Clouds
9:30 AM64.4 °F60.8 °F88 %29.98 in4.3 miEast (90°)3.5 mphMostly Cloudy
10:00 AM66.2 °F60.8 °F83 %29.98 in4.3 miEast (90°)4.6 mphMostly Cloudy
10:30 AM68.0 °F62.6 °F83 %29.98 in4.3 miEast (100°)8.1 mphScattered Clouds
11:00 AM68.0 °F62.6 °F83 %29.98 in5.0 miEast (100°)8.1 mphScattered Clouds
11:30 AM69.8 °F62.6 °F78 %29.98 in5.0 miEast (90°)9.2 mphScattered Clouds
12:00 PM71.6 °F62.6 °F73 %29.98 in5.6 miEast (80°)9.2 mphPartly Cloudy
12:30 PM73.4 °F62.6 °F69 %29.98 in5.6 miEast (90°)11.5 mphPartly Cloudy
1:00 PM75.2 °F62.6 °F65 %29.95 in5.6 miEast (90°)10.4 mphPartly Cloudy
1:30 PM77.0 °F60.8 °F57 %29.95 in5.6 miEast (90°)12.7 mphPartly Cloudy
2:00 PM80.0 °F62.0 °F44 %29.90 in9.0 miEast (100°)10.4 mphScattered Clouds
2:00 PM78.8 °F60.8 °F54 %29.92 in6.2 miEast (90°)11.5 mphPartly Cloudy
2:30 PM82.4 °F60.8 °F48 %29.92 in6.2 miEast (100°)10.4 mphPartly Cloudy
3:00 PM84.2 °F59.0 °F42 %29.92 in6.2 miEast (90°)10.4 mphPartly Cloudy
3:30 PM84.2 °F59.0 °F42 %29.89 in6.2 miEast (90°)11.5 mphPartly Cloudy
4:00 PM86.0 °F59.0 °F40 %29.89 in6.2 miEast (90°)11.5 mphPartly Cloudy
4:30 PM86.0 °F59.0 °F40 %29.86 in6.2 miEast (90°)10.4 mphPartly Cloudy
5:00 PM87.8 °F59.0 °F38 %29.86 in6.2 miEast (100°)8.1 mphPartly Cloudy
5:30 PM87.8 °F51.8 °F29 %29.86 in6.2 miESE (110°)9.2 mphPartly Cloudy
6:00 PM87.8 °F51.8 °F29 %29.86 in6.2 miESE (120°)10.4 mphPartly Cloudy
6:30 PM87.8 °F50.0 °F27 %29.86 in6.2 miESE (120°)12.7 mphPartly Cloudy
7:00 PM87.8 °F51.8 °F29 %29.86 in6.2 miESE (110°)12.7 mphPartly Cloudy
7:30 PM86.0 °F51.8 °F31 %29.86 in6.2 miSE (130°)11.5 mphPartly Cloudy
8:00 PM86.0 °F53.0 °F22 %29.82 in9.0 miSE (130°)8.1 mphScattered Clouds
8:00 PM84.2 °F50.0 °F30 %29.86 in6.2 miSE (140°)9.2 mphScattered Clouds
8:30 PM82.4 °F50.0 °F32 %29.86 in6.2 miSE (130°)6.9 mphScattered Clouds
9:00 PM82.4 °F51.8 °F35 %29.89 in6.2 miESE (110°)6.9 mphPartly Cloudy
9:30 PM80.6 °F53.6 °F39 %29.89 in6.2 miESE (110°)5.8 mphPartly Cloudy
10:00 PM78.8 °F55.4 °F44 %29.89 in6.2 miESE (110°)8.1 mphPartly Cloudy
10:30 PM77.0 °F57.2 °F50 %29.89 in6.2 miEast (80°)8.1 mphPartly Cloudy
11:00 PM75.2 °F59.0 °F57 %29.92 in6.2 miEast (80°)8.1 mphPartly Cloudy
11:30 PM75.2 °F60.8 °F61 %29.92 in6.2 miVariable1.2 mphPartly Cloudy
Hourly data recorded from LEZG, located miles away from Zaragoza, Spain







STORIES FROM OUR PARTNERS